Location: Ravensburg
(48.5621°N, 13.4088°E)
Time: 06:20:24
(UTC+01:00)

ISS - Pass Details

Date: 22 March 2017
Orbit: 402 x 406 km, 51.6° (Epoch: 18 December)

Event Time Altitude Azimuth Distance (km) Brightness Sun altitude
Exits shadow 03:55:33 24° 143° (SE) 939 -1.9 -21.4°
Drops below altitude 10° 03:57:05 10° 133° (SE) 1,513 -0.7 -21.2°
Enters shadow 04:58:21 -58° 315° (NW) 11,297 3.4 -11.7°
